Regional Weather Roundup
Issued by NWS

Home | Current Version | Previous Version | Text Only | Print | Product List | Glossary On
Versions: 1 2 3 4 5 6 7 8 9 10 11 12 13 14 15 16 17 18 19 20 21 22 23 24 25 26 27 28 29 30 31 32 33 34 35 36 37 38 39 40 41 42 43 44 45 46 47 48 49 50
000
ASUS43 KDTX 201010
RWRMI
MICHIGAN HOURLY REGIONAL WEATHER ROUNDUP
NATIONAL WEATHER SERVICE DETROIT/PONTIAC MI
500 AM EST SAT DEC 20 2014

NOTE: "FAIR" INDICATES FEW OR NO CLOUDS BELOW 12,000 FEET WITH NO
SIGNIFICANT WEATHER AND/OR OBSTRUCTION TO VISIBILITY.

MIZ047>049-052>055-059>063-066>070-074>076-081>083-201100-
SOUTHEAST LOWER MICHIGAN

CITY           SKY/WX    TMP DP  RH WIND       PRES   REMARKS
ADRIAN         CLOUDY    28  24  85 S3        30.28F
ALMA           PTCLDY    16  15  97 CALM      30.29S
ANN ARBOR      CLOUDY    27  22  81 CALM      30.28S
BAD AXE        PTCLDY    15  14  96 CALM      30.29R
CARO           PTCLDY    14  11  90 CALM      30.29S
DETROIT CITY   CLOUDY    26  20  77 W3        30.31R
DETROIT        CLOUDY    26  22  84 N3        30.30S
FLINT          PTCLDY    18  14  84 CALM      30.29S
GROSSE ILE     CLOUDY    28  23  80 CALM      30.29R
HILLSDALE      CLOUDY    27  24  87 CALM      30.25S
HOWELL         CLOUDY    22  20  95 CALM      30.27S

CITY           SKY/WX    TMP DP  RH WIND       PRES   REMARKS
JACKSON        CLOUDY    24  22  91 CALM      30.26F
LAMBERTVILLE   CLOUDY    32  23  69 CALM      30.29S
LANSING        CLEAR     17  13  84 CALM      30.28F
LAPEER         FAIR      15  14  93 CALM      30.29F
MASON          CLOUDY    23  21  91 CALM      30.27S
MONROE         CLOUDY    28  23  80 CALM      30.28S
MT. CLEMENS    CLOUDY    22  21  98 W3        30.27S
PONTIAC        CLOUDY    22  20  92 CALM      30.27S
PORT HOPE        N/A     27  20  75 CALM      30.27F
PORT HURON     CLOUDY    19  19 100 CALM      30.30R
TRI CITIES     PTCLDY    20  17  88 SW5       30.30R WCI  13
TROY           PTCLDY    24  20  84 CALM      30.31S
SAGINAW HB     CLEAR     19  19 100 S3        30.29F
$$
MIZ043>046-050>051-056>058-064>065-071>073-077>080-201100-
SOUTHWEST LOWER MICHIGAN

CITY           SKY/WX    TMP DP  RH WIND       PRES   REMARKS
BATTLE CREEK   CLOUDY    23  19  85 CALM      30.27S
BENTON HARBOR  CLOUDY    27  24  89 CALM      30.27F
BIG RAPIDS     MOCLDY    17  16  96 CALM      30.26S
COLDWATER      CLOUDY    26  24  94 MISG      30.27S FOG
FREMONT        PTSUNNY   20  18  91 CALM      30.28R
HOLLAND        PTCLDY    22  18  85 CALM      30.28S
GRAND RAPIDS   CLEAR     18  15  88 CALM      30.28S
IONIA          FAIR      18  17  97 CALM      30.27S FOG
KALAMAZOO      CLEAR     19  15  84 CALM      30.27S FOG
LUDINGTON      MOCLDY    21  18  90 E6        30.28S WCI  13
MARSHALL       CLOUDY    20  19  94 CALM      30.26F
MOUNT PLEASANT PTCLDY    17  15  93 CALM      30.28S
MUSKEGON       PTCLDY    20  16  84 CALM      30.29S
SOUTH HAVEN    MOCLDY    21  19  91 CALM      30.27F
$$
MIZ016>042-201100-
NORTHERN LOWER MICHIGAN

CITY           SKY/WX    TMP DP  RH WIND       PRES   REMARKS
ALPENA         CLEAR     10   7  87 CALM      30.30R
BEAVER ISLAND  CLOUDY    22  22  97 CALM      30.27S
BELLAIRE       CLOUDY    25  22  89 CALM      30.28S
CADILLAC       CLOUDY    12   9  87 CALM      30.23S
CHARLEVOIX     CLOUDY    24  22  91 SE5       30.30S WCI  18
FRANKFORT      CLOUDY    27  24  87 CALM      30.26F
GAYLORD        CLOUDY    14  12  92 CALM      30.24S
GRAYLING       MOCLDY    10   8  91 CALM      30.26S
HARBOR SPRINGS CLOUDY    13  10  89 NE6       30.27S WCI   4
HOUGHTON LAKE  CLOUDY     7   3  84 CALM      30.26S
MANISTEE       CLOUDY    23  18  80 CALM      30.28S
OSCODA         PTCLDY    10   8  92 CALM      30.28S
PELLSTON       PTCLDY    -1  -5  82 CALM      30.29S
ROGERS CITY    CLOUDY    18  17  98 SW6       30.30S WCI  10
TRAVERSE CITY  CLOUDY    27  20  75 CALM      30.26F
$$
MIZ007>008-015-201100-
EASTERN UPPER MICHIGAN

CITY           SKY/WX    TMP DP  RH WIND       PRES   REMARKS
KINROSS        MOCLDY     7   7 100 CALM      30.27S
MACKINAC ISLAN CLOUDY    18  17  98 CALM      30.27S
NEWBERRY       CLOUDY    23  20  89 CALM      30.25S
S. S. MARIE    PTCLDY    10   5  80 CALM      30.25F
MUNISING         N/A     17  12  80 SW6       30.26S WCI   9
$$
MIZ004>006-011>014-085-201100-
CENTRAL UPPER MICHIGAN

CITY           SKY/WX    TMP DP  RH WIND       PRES   REMARKS
MANISTIQUE     CLOUDY    19  18  98 CALM      30.27R
ESCANABA       CLEAR      9   1  72 CALM      30.25F
MENOMINEE      CLOUDY    14  10  85 CALM      30.26S
SAWYER-GWINN   CLOUDY    10   7  88 CALM      30.21S
$$
MIZ001>003-009>011-084-201100-
WESTERN UPPER MICHIGAN

CITY           SKY/WX    TMP DP  RH WIND       PRES   REMARKS
IRON MOUNTAIN  CLOUDY    15  12  88 CALM      30.21F FOG
HOUGHTON       PTCLDY    19  16  88 S3        30.18S
COPPER HARBOR    N/A     26  21  81 SW7       30.21S WCI  18
IRONWOOD       CLOUDY    25  21  86 S10       30.15R WCI  15
$$

ABBREVIATIONS USED IN REMARKS
   TC - TEMPERATURE IN CELSIUS
  WCI - WIND CHILL INDEX
   HX - HEAT INDEX
  VSB - VISIBILITY




USA.gov is the U.S. government's official web portal to all federal, state and local government web resources and services.